Groton, South Dakota, United States (57445)
Lat: 45.45N, Lon: 98.1W
Wx Zone: SDZ006
Local Info
Past Weather Observations for Monday, March 23, 2015

NOTE: This archive is for the closest National Weather Service station to Groton. Information may differ from the station used for current weather conditions.

Click here for Long-term Archive

Time Weather Temperature Dewpoint Humidity Pressure Winds Precip Visibility
23:53
Clear
37°F / 3°C 30°F / -1°C 75% 29.98 in
(1015 mb)
SSE 10.4 mph
(SSE 17 kph)
- 10SM
22:53
Clear
37°F / 3°C 30°F / -1°C 75% 29.98 in
(1015 mb)
SE 9.2 mph
(SE 15 kph)
- 10SM
21:53
Clear
37°F / 3°C 30°F / -1°C 75% 29.98 in
(1015 mb)
SE 8.1 mph
(SE 13 kph)
- 10SM
20:53
Clear
37°F / 3°C 30°F / -1°C 75% 30.01 in
(1016 mb)
SE 9.2 mph
(SE 15 kph)
- 10SM
19:53
Clear
39°F / 4°C 30°F / -1°C 70% 30.01 in
(1016 mb)
SE 9.2 mph
(SE 15 kph)
- 10SM
18:53
Clear
41°F / 5°C 30°F / -1°C 66% 30.01 in
(1016 mb)
SSE 10.4 mph
(SSE 17 kph)
- 10SM
17:53
Clear
46°F / 8°C 30°F / -1°C 53% 30.01 in
(1016 mb)
S 11.5 mph
(S 19 kph)
- 10SM
16:53
Clear
50°F / 10°C 30°F / -1°C 47% 30.01 in
(1016 mb)
S 11.5 mph
(S 19 kph)
- 10SM
15:53
Clear
52°F / 11°C 32°F / 0°C 47% 30.01 in
(1016 mb)
S 13.8 mph
(S 22 kph)
- 10SM
14:53
Clear
46°F / 8°C 32°F / 0°C 57% 30.01 in
(1016 mb)
SSE 15 mph
(SSE 24 kph)
- 10SM
13:53
Partly Cloudy
43°F / 6°C 34°F / 1°C 71% 30.06 in
(1018 mb)
S 15 mph
(S 24 kph)
- 10SM
13:44
Partly Cloudy
41°F / 5°C 34°F / 1°C 76% 30.06 in
(1018 mb)
SSE 15 mph
(SSE 24 kph)
- 10SM
13:19
Mostly Cloudy
37°F / 3°C 34°F / 1°C 87% 30.09 in
(1019 mb)
SSE 15 mph
(SSE 24 kph)
- 10SM
12:53
Overcast
34°F / 1°C 30°F / -1°C 87% 30.09 in
(1019 mb)
SSE 13.8 mph
(SSE 22 kph)
- 8SM
11:53
Overcast
Fog And Mist
30°F / -1°C 28°F / -2°C 93% 30.12 in
(1020 mb)
S 16.1 mph
(S 26 kph)
- 6SM
11:17
Overcast
Fog And Mist
30°F / -1°C 27°F / -3°C 86% 30.15 in
(1021 mb)
S 17.3 mph
(S 28 kph)
- 6SM
10:53
Overcast
Fog And Mist
30°F / -1°C 27°F / -3°C 86% 30.15 in
(1021 mb)
S 15 mph
(S 24 kph)
- 5SM
09:53
Overcast
Fog And Mist
28°F / -2°C 27°F / -3°C 93% 30.15 in
(1021 mb)
S 11.5 mph
(S 19 kph)
- 5SM
09:35
Overcast
Fog And Mist
28°F / -2°C 27°F / -3°C 93% 30.18 in
(1022 mb)
SSE 13.8 mph
(SSE 22 kph)
- 5SM
08:53
Overcast
Fog And Mist
28°F / -2°C 25°F / -4°C 86% 30.15 in
(1021 mb)
S 12.7 mph
(S 20 kph)
- 5SM
08:08
Overcast
Fog And Mist
28°F / -2°C 25°F / -4°C 86% 30.15 in
(1021 mb)
SSE 13.8 mph
(SSE 22 kph)
- 5SM
07:53
Overcast
Fog And Mist
28°F / -2°C 25°F / -4°C 86% 30.15 in
(1021 mb)
SSE 11.5 mph
(SSE 19 kph)
- 5SM
06:53
Overcast
28°F / -2°C 25°F / -4°C 86% 30.15 in
(1021 mb)
SSE 10.4 mph
(SSE 17 kph)
- 7SM
05:53
Overcast
28°F / -2°C 25°F / -4°C 86% 30.18 in
(1022 mb)
SSE 6.9 mph
(SSE 11 kph)
- 10SM
04:53
Overcast
28°F / -2°C 23°F / -5°C 80% 30.18 in
(1022 mb)
SE 5.8 mph
(SE 9 kph)
- 10SM
04:15
Overcast
28°F / -2°C 23°F / -5°C 80% 30.18 in
(1022 mb)
SE 5.8 mph
(SE 9 kph)
- 10SM
03:53
Overcast
28°F / -2°C 21°F / -6°C 74% 30.18 in
(1022 mb)
SSE 5.8 mph
(SSE 9 kph)
- 10SM
03:50
Overcast
28°F / -2°C 21°F / -6°C 74% 30.18 in
(1022 mb)
SSE 4.6 mph
(SSE 7 kph)
- 10SM
02:53
Overcast
25°F / -4°C 18°F / -8°C 74% 30.18 in
(1022 mb)
Calm - 10SM
02:44
Overcast
Hazy
23°F / -5°C 18°F / -8°C 80% 30.21 in
(1023 mb)
SW 3.5 mph
(SW 6 kph)
- 3SM
02:40
Overcast
Hazy
21°F / -6°C 18°F / -8°C 86% 30.21 in
(1023 mb)
SW 3.5 mph
(SW 6 kph)
- 1 1/2SM
02:22
Overcast
Hazy
18°F / -8°C 10°F / -12°C 73% 30.21 in
(1023 mb)
SSW 4.6 mph
(SSW 7 kph)
- 1/2SM
01:53
Obscured
Hazy
18°F / -8°C 10°F / -12°C 73% 30.21 in
(1023 mb)
SW 3.5 mph
(SW 6 kph)
- 1/4SM
01:34
Obscured
Fog
21°F / -6°C 18°F / -8°C 86% 30.21 in
(1023 mb)
Calm - 1/4SM
01:06
Clear
Fog
19°F / -7°C 16°F / -9°C 86% 30.21 in
(1023 mb)
Calm - 1/4SM
00:53
Clear
Fog And Mist
16°F / -9°C 12°F / -11°C 86% 30.21 in
(1023 mb)
Calm - 3/4SM
00:48
Clear
Fog And Mist
16°F / -9°C 14°F / -10°C 93% 30.21 in
(1023 mb)
Calm - 1 3/4SM
00:33
Clear
Fog And Mist
19°F / -7°C 16°F / -9°C 86% 30.21 in
(1023 mb)
E 3.5 mph
(E 6 kph)
- 3SM
00:29
Clear
Fog And Mist
19°F / -7°C 16°F / -9°C 86% 30.21 in
(1023 mb)
E 4.6 mph
(E 7 kph)
- 1 1/2SM
00:02
Clear
Fog
19°F / -7°C 16°F / -9°C 86% 30.21 in
(1023 mb)
Calm - 1/2SM
Time Weather Temperature Dewpoint Humidity Pressure Winds Precip Visibility


Weather for websites

WeatherForYou.com, LLC is not responsible for any damages or problems caused by this service. Current weather conditions are obtained from the closest station including government and personal stations which may have varying degrees of accuracy. Weather forecasts are derived from the NOAA NDFD. Like all things, this site belongs to Jesus Christ... He just trusts me to maintain it. If you have any questions or comments email webmaster@weatherforyou.com

Copyright © 2015, WeatherForYou.com LLC. All rights reserved.